CST,Max TemperatureF,Mean TemperatureF,Min TemperatureF,Max Dew PointF,MeanDew PointF,Min DewpointF,Max Humidity, Mean Humidity, Min Humidity, Max Sea Level PressureIn, Mean Sea Level PressureIn, Min Sea Level PressureIn, Max VisibilityMiles, Mean VisibilityMiles, Min VisibilityMiles, Max Wind SpeedMPH, Mean Wind SpeedMPH, Max Gust SpeedMPH,PrecipitationIn, CloudCover, Events, WindDirDegrees
2013-2-1,-2,-18,-34,-8,-19,-36,81,72,60,30.34,30.21,30.00,10,9,3,8,2,,0.00,5,Snow,162
2013-2-2,5,-8,-22,0,-8,-26,87,79,66,30.24,30.09,29.92,10,7,1,13,3,,0.00,6,Snow,216
2013-2-3,7,2,-2,-2,-5,-10,83,72,61,30.11,30.07,30.03,10,10,10,15,8,,0.00,6,,314
2013-2-4,14,2,-9,10,-1,-14,85,75,64,30.11,29.87,29.57,10,7,1,15,5,21,0.01,7,Snow,185
2013-2-5,23,16,9,20,7,-1,89,73,45,30.08,29.86,29.54,10,8,2,16,9,,0.00,6,Snow,332
2013-2-6,21,14,8,16,11,3,92,84,73,30.12,29.99,29.86,10,5,0,13,5,18,0.04,8,Fog-Snow,113
2013-2-7,21,8,-7,16,8,-9,93,86,74,30.37,30.23,30.07,10,7,0,10,5,,0.00,6,Fog,27
2013-2-8,21,7,-7,15,-1,-11,92,80,63,30.40,30.29,30.14,10,4,0,17,3,,0.00,5,Fog-Snow,146
2013-2-9,26,22,17,25,22,14,96,91,84,30.12,29.98,29.88,9,4,2,14,11,,0.00,8,,154
2013-2-10,27,25,23,25,23,19,96,88,80,29.91,29.60,29.42,7,2,0,20,9,28,0.67,8,Fog-Snow,53
2013-2-11,23,12,1,19,13,-2,92,84,77,30.03,29.75,29.48,10,5,1,21,16,29,0.00,7,Snow,317
2013-2-12,28,19,10,20,14,7,92,83,69,29.99,29.86,29.77,10,10,9,9,7,,0.00,6,,223
2013-2-13,32,21,10,25,19,9,100,85,69,29.76,29.67,29.57,10,7,0,8,3,,0.00,4,Fog,273
2013-2-14,23,12,1,19,4,-4,95,67,38,30.25,30.02,29.75,10,9,0,15,10,,0.07,2,Snow,336
2013-2-15,15,2,-11,2,-4,-16,87,76,52,30.38,30.31,30.17,10,9,5,15,7,,0.00,3,Snow,289
2013-2-16,18,12,5,7,4,1,91,79,60,30.27,30.14,29.98,10,7,2,13,5,,0.00,7,Snow,178
2013-2-17,27,20,12,21,13,5,88,77,69,30.06,29.79,29.51,10,10,6,22,12,26,0.00,8,,160
2013-2-18,26,13,0,23,8,-6,88,77,67,30.01,29.68,29.45,10,7,2,26,14,32,0.00,8,Snow,305
2013-2-19,3,-6,-14,-7,-12,-20,78,69,55,30.50,30.23,29.96,10,9,5,21,15,30,0.00,3,,331
2013-2-20,17,0,-17,-1,-10,-23,75,60,45,30.57,30.50,30.40,10,10,10,7,5,,0.00,0,,61
2013-2-21,21,10,0,10,-2,-13,77,58,44,30.52,30.39,30.22,10,10,10,10,5,,0.00,0,,89
2013-2-22,24,17,10,19,16,9,93,87,74,30.19,29.97,29.84,10,6,1,9,5,,0.00,8,Snow,17
2013-2-23,24,14,1,20,12,0,96,89,79,29.99,29.88,29.80,10,6,0,7,3,,0.00,5,Fog,286
2013-2-24,28,14,1,19,6,-2,100,86,63,30.12,30.01,29.89,10,3,0,7,1,,0.00,2,Fog,191
2013-2-25,28,17,6,22,13,3,92,83,72,30.12,30.07,29.99,10,7,0,8,3,,0.00,3,Fog,204
2013-2-26,30,18,6,21,11,3,100,82,61,30.11,30.04,29.97,10,4,0,10,3,,0.00,4,Fog,349
2013-2-27,39,30,21,19,15,10,74,57,38,30.12,30.05,29.98,10,10,10,14,10,,0.00,1,,356
2013-2-28,28,26,21,18,14,10,77,65,53,30.32,30.24,30.14,10,10,10,13,9,18,0.00,5,,39